Home > Weather > Lugano > Past weeks

Flag for Switzerland Weather for the Past 2 Weeks in Lugano, Switzerland

Now
41 °F

Light rain. Fog.


Feels Like: 41 °F
Forecast: 30 / 47 °F
Wind: 1 mph from North

Location: Lugano Airport

Current Time: Feb 14, 2016 at 2:15:15 PM

Latest Report: Feb 14, 2016 at 1:20 PM


Visibility: 3 mi

Pressure: 29.33 "Hg

Humidity: 87%

Dew point: 37 °F

Location of LuganoLocation

Historic Weather in Lugano — Graph

°F

Lugano Temperature Yesterday

Maximum temperature yesterday: 46 °F (at 3:50 PM)
Minimum temperature yesterday: 28 °F (at 4:20 AM)
Average temperature yesterday: 36 °F

High & Low Weather Summary for the Past Weeks

 TemperatureHumidityPressure
High59 °F (Jan 31, 2:50 PM)100% (Jan 30, 11:20 PM)30.42 "Hg (Jan 30, 11:20 PM)
Low28 °F (Feb 11, 3:20 AM)18% (Feb 3, 10:20 PM)29.33 "Hg (Feb 10, 1:20 AM)
Average41 °F79%29.94 "Hg
* Reported Jan 30 1:20 PM — Feb 14 1:20 PM, Lugano, Weather by CustomWeather, © 2016

Note: Actual official high and low records may vary slightly from our data, if they occured in-between our weather recording intervals... More about our weather records

Advertising

Lugano Weather History for the Previous 24 Hours

 ConditionsComfort  
Time TempWeatherWind HumidityBarometerVisibility
1:20 PM
Sun, Feb 14
41 °FLight rain. Fog.1 mph87%29.33 "Hg3 mi
12:50 PM39 °FLight rain. Fog.2 mph93%29.33 "Hg2 mi
12:20 PM39 °FLight rain. Fog.2 mph87%29.33 "Hg2 mi
11:50 AM39 °FLight rain. Fog.3 mph93%29.33 "Hg2 mi
11:20 AM39 °FLight rain. Fog.5 mph93%29.36 "Hg2 mi
10:50 AM37 °FLight rain. Fog.2 mph93%29.36 "Hg2 mi
10:20 AM37 °FLight rain. Fog.5 mph93%29.36 "Hg2 mi
9:50 AM37 °FDrizzle. Fog.5 mph93%29.36 "Hg2 mi
9:20 AM37 °FDrizzle. Fog.2 mph93%29.36 "Hg2 mi
8:50 AM36 °FPartly sunny.2 mph93%29.36 "Hg4 mi
8:20 AM36 °FFog.1 mph93%29.36 "Hg3 mi
7:50 AM34 °FPartly sunny.1 mph100%29.36 "Hg4 mi
7:20 AM34 °FPassing clouds.2 mph100%29.36 "Hg4 mi
6:50 AM36 °FPartly cloudy.No wind93%29.36 "Hg4 mi
6:20 AM36 °FPartly cloudy.No wind93%29.36 "Hg4 mi
5:50 AM36 °FFog.2 mph93%29.39 "Hg3 mi
5:20 AM34 °FFog.1 mph100%29.39 "Hg2 mi
4:50 AM34 °FFog.5 mph93%29.39 "Hg2 mi
4:20 AM36 °FFog.1 mph93%29.39 "Hg2 mi
3:50 AM36 °FPassing clouds.3 mph93%29.42 "Hg3 mi
3:20 AM36 °FFog.1 mph93%29.45 "Hg2 mi
2:20 AM37 °FMostly cloudy.1 mph93%29.45 "Hg4 mi
1:50 AM39 °FOvercast.1 mph87%29.45 "HgN/A
1:20 AM39 °FPartly cloudy.2 mph87%29.45 "HgN/A
12:50 AM39 °FPartly cloudy.3 mph87%29.45 "HgN/A
12:20 AM39 °FPartly cloudy.1 mph87%29.45 "HgN/A
11:50 PM
Sat, Feb 13
41 °FMostly cloudy.5 mph81%29.45 "HgN/A
11:20 PM41 °FPartly cloudy.5 mph81%29.45 "Hg5 mi
10:50 PM41 °FPassing clouds.6 mph81%29.45 "Hg5 mi
9:50 PM39 °FPassing clouds.2 mph87%29.42 "HgN/A
9:20 PM41 °FPassing clouds.2 mph81%29.42 "HgN/A
8:50 PM39 °FPassing clouds.2 mph81%29.42 "HgN/A
8:20 PM39 °FPassing clouds.3 mph81%29.42 "HgN/A
7:50 PM39 °FPartly cloudy.3 mph81%29.42 "HgN/A
7:20 PM37 °FPassing clouds.2 mph87%29.42 "HgN/A
6:50 PM37 °FPassing clouds.2 mph81%29.39 "HgN/A
6:20 PM39 °FPassing clouds.3 mph75%29.39 "HgN/A
5:50 PM39 °FPassing clouds.2 mph81%29.39 "HgN/A
5:20 PM41 °FScattered clouds.3 mph76%29.39 "HgN/A
4:50 PM45 °FPassing clouds.2 mph61%29.39 "HgN/A
4:20 PM46 °FSunny.3 mph57%29.39 "Hg10 mi
3:50 PM46 °FSunny.2 mph57%29.39 "Hg10 mi
3:20 PM45 °FPassing clouds.1 mph57%29.39 "Hg6 mi
2:50 PM43 °FScattered clouds.1 mph66%29.39 "Hg6 mi
2:20 PM41 °FPartly sunny.2 mph70%29.42 "Hg6 mi
Weather by CustomWeather, © 2016

See weather overviewHow to use our weather pages